Location: Columbus
(35.2256°N, 82.1549°W)
Time: 11:12:01
(UTC-05:00)

ISS - Pass Details

Date: 09 December 2021
Orbit: 413 x 422 km, 51.6° (Epoch: 28 January)

Event Time Altitude Azimuth Distance (km) Brightness Sun altitude
Rises 18:55:04 0° 293° (WNW) 2,373 0.9 -19.6°
Reaches altitude 10° 18:57:48 10° 270° (W) 1,501 0.2 -20.1°
Maximum altitude 18:59:50 15° 233° (SW) 1,218 -0.6 -20.5°
Drops below altitude 10° 19:01:52 10° 195° (SSW) 1,490 -0.6 -20.9°
Enters shadow 19:05:58 -4° 165° (SSE) 2,860 0.5 -21.7°
